Location: Unspecified
(0.0000°N, 0.0000°E)
Time: 15:39:37
(UTC+00:00)

SEEDS - Visible Passes

Search period start: 19 October 2020 00:00
Search period end: 29 October 2020 00:00
Orbit: 584 x 604 km, 97.6° (Epoch: 18 October)

Date Brightness Start Highest point End Pass type
(mag) Time Alt. Az. Time Alt. Az. Time Alt. Az.
19 Oct ? 04:13:30 10° NE 04:16:53 24° ESE 04:20:17 10° SSE visible
20 Oct ? 04:22:27 10° NE 04:26:12 32° ESE 04:30:00 10° SSE visible
21 Oct ? 04:31:31 10° NNE 04:35:32 45° ESE 04:39:35 10° S visible
22 Oct ? 04:40:43 10° NNE 04:44:52 63° E 04:49:04 10° S visible
23 Oct ? 04:50:00 10° NNE 04:54:12 88° E 04:58:27 10° S visible
24 Oct ? 04:59:22 10° N 05:03:33 66° W 05:07:45 10° SSW visible
25 Oct ? 05:08:50 10° N 05:12:53 47° W 05:16:58 10° SSW visible
27 Oct ? 03:54:23 10° ENE 03:56:12 12° ESE 03:58:01 10° SE visible
28 Oct ? 04:02:45 10° ENE 04:05:32 17° ESE 04:08:18 10° SE visible
